Location: Beutels
(47.8767°N, 9.8584°E)
Time: 09:31:49
(UTC+00:00)

Lacrosse 5 rocket - Pass Details

Date: 19 May 2025
Orbit: 419 x 515 km, 57.0° (Epoch: 23 June)

Event Time Altitude Azimuth Distance (km) Brightness Sun altitude
Rises 21:25:13 0° 299° (WNW) 2,471 5.6 -17.7°
Reaches altitude 10° 21:27:40 10° 284° (WNW) 1,574 4.2 -17.9°
Maximum altitude 21:30:28 22° 231° (SW) 998 2.5 -18.1°
Enters shadow 21:30:40 22° 225° (SW) 1,000 2.5 -18.1°
